EW6800 Weather Reports


time (UTC)temp
F
wind
direction
speed
knots
gust
knots
rain 1hr
in
rain 24hr
in
rain mn
in
humidity
%
barometer
mb
20260506205044 64 295 3.5 7.8 0.00 0.00 0.00 71 1019.7
20260506204604 65 309 3.5 7.0 0.00 0.00 0.00 71 1019.8
20260506204043 64 325 1.7 4.3 0.00 0.00 0.00 73 1019.7
20260506203544 64 328 1.7 6.1 0.00 0.00 0.00 71 1019.8
20260506203055 64 305 1.7 6.1 0.00 0.00 0.00 71 1019.8
20260506202543 64 333 2.6 7.0 0.00 0.00 0.00 72 1020.0
20260506202045 64 331 2.6 8.7 0.00 0.00 0.00 72 1020.0
20260506201551 64 307 2.6 8.7 0.00 0.00 0.00 70 1020.0
20260506201043 65 318 1.7 4.3 0.00 0.00 0.00 70 1020.0
20260506200544 64 153 1.7 4.3 0.00 0.00 0.00 71 1020.1
20260506200050 64 301 2.6 4.3 0.00 0.00 0.00 71 1020.1
20260506195543 64 276 1.7 4.3 0.00 0.00 0.00 69 1020.0
20260506195046 65 312 1.7 7.0 0.00 0.00 0.00 67 1020.0
20260506194600 66 305 2.6 7.0 0.00 0.00 0.00 66 1020.1
20260506194049 67 316 0.9 4.3 0.00 0.00 0.00 63 1020.0
20260506193544 68 355 0.9 3.5 0.00 0.00 0.00 62 1020.0
20260506193052 69 0 0.9 4.3 0.00 0.00 0.00 60 1020.0
20260506192558 68 78 0.9 4.3 0.00 0.00 0.00 60 1020.1
20260506192044 68 69 1.7 3.5 0.00 0.00 0.00 61 1020.1
20260506191555 67 0 1.7 6.1 0.00 0.00 0.00 60 1020.2
20260506191044 67 108 1.7 6.1 0.00 0.00 0.00 62 1020.2
20260506190543 67 138 1.7 6.1 0.00 0.00 0.00 61 1020.2
20260506190053 67 60 1.7 5.2 0.00 0.00 0.00 60 1020.2
20260506185543 67 90 1.7 5.2 0.00 0.00 0.00 63 1020.2
20260506185043 66 109 0.0 4.3 0.00 0.00 0.00 67 1020.2
20260506184556 66 141 0.9 4.3 0.00 0.00 0.00 67 1020.2
20260506184044 65 61 0.0 4.3 0.00 0.00 0.00 69 1020.3
20260506183545 63 0 0.9 4.3 0.00 0.00 0.00 72 1020.3
20260506183100 63 0 0.0 2.6 0.00 0.00 0.00 72 1020.3
20260506182543 62 317 0.9 2.6 0.00 0.00 0.00 74 1020.3
20260506182043 62 311 0.9 2.6 0.00 0.00 0.00 74 1020.5
20260506181559 62 320 0.0 2.6 0.00 0.00 0.00 74 1020.5
20260506181043 62 207 0.9 1.7 0.00 0.00 0.00 75 1020.3
20260506180544 61 190 0.9 1.7 0.00 0.00 0.00 75 1020.3
20260506180052 61 189 0.9 2.6 0.00 0.00 0.00 74 1020.2
20260506175543 61 0 0.0 2.6 0.00 0.00 0.00 76 1020.3
20260506175047 60 0 0.0 0.9 0.00 0.00 0.00 77 1020.3
20260506174555 60 0 0.0 3.5 0.00 0.00 0.00 77 1020.3
20260506174046 59 0 0.9 3.5 0.00 0.00 0.00 78 1020.2
20260506173544 59 289 0.9 3.5 0.00 0.00 0.00 78 1020.2
20260506173051 59 257 0.9 3.5 0.00 0.00 0.00 79 1020.2
20260506172543 58 233 0.0 2.6 0.00 0.00 0.00 79 1020.2
20260506172045 58 0 0.9 2.6 0.00 0.00 0.00 78 1020.2
20260506171557 58 281 0.9 3.5 0.00 0.00 0.00 79 1020.2
20260506171044 58 0 0.9 3.5 0.00 0.00 0.00 80 1020.3
20260506170544 58 246 0.0 4.3 0.00 0.00 0.00 80 1020.3
20260506170057 58 102 0.9 4.3 0.00 0.00 0.00 80 1020.3
20260506165543 57 0 0.9 5.2 0.00 0.00 0.00 80 1020.2
20260506165044 57 146 0.9 5.2 0.00 0.00 0.00 80 1020.3
20260506164601 57 150 1.7 5.2 0.00 0.00 0.00 80 1020.2
20260506164043 57 0 0.0 2.6 0.00 0.00 0.00 81 1020.2
20260506163543 57 0 0.0 4.3 0.00 0.00 0.00 82 1020.3
20260506163105 56 0 0.9 4.3 0.00 0.00 0.00 82 1020.2
20260506162543 56 157 1.7 4.3 0.00 0.00 0.00 81 1020.3
20260506162045 56 146 0.9 3.5 0.00 0.00 0.00 82 1020.2
20260506161604 56 0 1.7 3.5 0.00 0.00 0.00 82 1020.3
20260506161043 56 104 0.9 5.2 0.00 0.00 0.00 83 1020.2
20260506160544 56 143 0.9 5.2 0.00 0.00 0.00 83 1020.2
20260506160048 55 85 0.9 2.6 0.00 0.00 0.00 83 1020.2
20260506155543 55 82 0.9 2.6 0.00 0.00 0.00 84 1020.2
20260506155047 55 78 0.9 2.6 0.00 0.00 0.00 85 1020.1
20260506154608 54 0 0.9 2.6 0.00 0.00 0.00 86 1020.1
20260506154044 54 90 0.9 2.6 0.00 0.00 0.00 87 1020.2
20260506153544 53 84 0.9 3.5 0.00 0.00 0.00 88 1020.2
20260506153048 53 0 0.9 3.5 0.00 0.00 0.00 89 1020.2
20260506152545 53 0 0.9 2.6 0.00 0.00 0.00 89 1020.2
20260506152043 52 109 0.9 2.6 0.00 0.00 0.00 90 1020.1
20260506151558 52 111 0.9 2.6 0.00 0.00 0.00 92 1020.1
20260506151043 51 80 0.0 3.5 0.00 0.00 0.00 93 1020.2
20260506150547 51 80 0.9 3.5 0.00 0.00 0.00 93 1020.1
20260506150053 51 86 1.7 4.3 0.00 0.00 0.00 93 1020.2
20260506145546 50 71 1.7 4.3 0.00 0.00 0.00 93 1020.1
20260506145043 50 82 0.9 4.3 0.00 0.00 0.00 93 1020.1
20260506144601 50 85 1.7 3.5 0.00 0.00 0.00 93 1020.1
20260506144043 50 88 1.7 3.5 0.00 0.00 0.00 93 1020.1
20260506143544 50 77 1.7 4.3 0.00 0.00 0.00 94 1020.0
20260506143054 49 74 1.7 4.3 0.00 0.00 0.00 94 1020.0
20260506142547 49 78 1.7 4.3 0.00 0.00 0.00 94 1020.0
20260506142043 49 77 0.9 4.3 0.00 0.00 0.00 94 1020.0
20260506141551 49 69 1.7 4.3 0.00 0.00 0.00 94 1019.9
20260506141043 49 81 1.7 3.5 0.00 0.00 0.00 94 1020.0
20260506140543 49 82 0.9 3.5 0.00 0.00 0.00 94 1019.8
20260506140059 48 0 0.0 3.5 0.00 0.00 0.00 94 1019.8
20260506135543 48 100 0.0 2.6 0.00 0.00 0.00 94 1019.7
20260506135045 48 100 0.0 3.5 0.00 0.00 0.00 94 1019.8
20260506134557 48 100 0.0 3.5 0.00 0.00 0.00 94 1019.7
20260506134044 48 0 0.9 2.6 0.00 0.00 0.00 94 1019.6
20260506133543 48 88 0.9 2.6 0.00 0.00 0.00 94 1019.5
20260506133102 48 79 0.0 2.6 0.00 0.00 0.00 94 1019.4
20260506132543 48 41 0.0 2.6 0.00 0.00 0.00 94 1019.5
20260506132044 48 41 0.9 2.6 0.00 0.00 0.00 94 1019.3
20260506131552 48 39 0.9 2.6 0.00 0.00 0.00 94 1019.4
20260506131043 48 15 0.9 2.6 0.00 0.00 0.00 94 1019.3
20260506130544 48 14 0.9 1.7 0.00 0.00 0.00 94 1019.3
20260506130052 48 13 0.9 1.7 0.00 0.00 0.00 93 1019.3
20260506125543 48 13 0.9 2.6 0.00 0.00 0.00 93 1019.3
20260506125044 48 13 0.9 2.6 0.00 0.00 0.00 93 1019.3
20260506124549 48 13 0.9 2.6 0.00 0.00 0.00 93 1019.3
20260506124044 48 13 0.9 2.6 0.00 0.00 0.00 94 1019.2
20260506123548 48 355 0.9 1.7 0.00 0.00 0.00 93 1019.2
20260506123051 48 355 0.9 1.7 0.00 0.00 0.00 93 1019.1
20260506122544 48 355 0.9 1.7 0.00 0.00 0.00 93 1019.1
20260506122043 48 355 0.9 1.7 0.00 0.00 0.00 93 1019.1
20260506121554 49 355 0.9 1.7 0.00 0.00 0.00 93 1019.1
20260506121044 49 0 0.0 1.7 0.00 0.00 0.00 93 1019.0
20260506120544 49 355 0.0 1.7 0.00 0.00 0.00 93 1019.0
20260506120053 49 355 0.9 1.7 0.00 0.00 0.00 93 1019.0
20260506115544 49 333 0.9 1.7 0.00 0.00 0.00 93 1018.9
20260506115043 49 327 0.0 1.7 0.00 0.00 0.00 93 1019.0
20260506114601 49 327 0.0 1.7 0.00 0.00 0.00 93 1018.9
20260506114043 49 327 0.9 1.7 0.00 0.00 0.00 93 1018.9
20260506113543 49 0 0.9 1.7 0.00 0.00 0.00 93 1018.9
20260506113100 49 327 0.0 1.7 0.00 0.00 0.00 93 1018.8
20260506112544 49 0 0.0 1.7 0.00 0.00 0.00 93 1018.9
20260506112044 49 0 0.0 1.7 0.00 0.00 0.00 93 1018.8
20260506111602 49 0 0.9 1.7 0.00 0.00 0.00 93 1018.9
20260506111046 49 327 0.9 1.7 0.00 0.00 0.00 94 1018.8
20260506110544 49 327 0.9 1.7 0.00 0.00 0.00 94 1018.7
20260506110052 49 327 0.0 1.7 0.00 0.00 0.00 93 1018.7
20260506105544 49 327 0.0 1.7 0.00 0.00 0.00 93 1018.7
20260506105043 49 327 0.9 1.7 0.00 0.00 0.00 94 1018.6
20260506104556 49 327 0.9 1.7 0.00 0.00 0.00 94 1018.6
20260506104044 49 0 0.0 1.7 0.00 0.00 0.00 94 1018.7
20260506103543 49 0 0.0 0.9 0.00 0.00 0.00 94 1018.6
20260506103057 48 0 0.0 1.7 0.00 0.00 0.00 94 1018.6
20260506102544 48 0 0.0 1.7 0.00 0.00 0.00 94 1018.6
20260506102044 48 327 0.9 2.6 0.00 0.00 0.00 94 1018.7
20260506101552 48 327 0.9 3.5 0.00 0.00 0.00 94 1018.7
20260506101046 48 327 0.9 3.5 0.00 0.00 0.00 94 1018.7
20260506100543 48 327 1.7 4.3 0.00 0.00 0.00 94 1018.7
20260506100218 48 327 1.7 4.3 0.00 0.00 0.00 94 1018.7
20260506095544 48 315 2.6 4.3 0.00 0.00 0.00 94 1018.6
20260506095047 48 313 2.6 3.5 0.00 0.00 0.00 94 1018.7
20260506094556 48 317 2.6 3.5 0.00 0.00 0.00 95 1018.8
20260506094044 48 317 1.7 4.3 0.00 0.00 0.00 95 1018.8
20260506093544 48 316 2.6 4.3 0.00 0.00 0.00 95 1018.8
20260506093102 48 316 1.7 2.6 0.00 0.00 0.00 95 1018.8
20260506092546 48 316 1.7 2.6 0.00 0.00 0.00 95 1018.8
20260506092045 48 316 0.9 2.6 0.00 0.00 0.00 95 1018.7
20260506091551 48 316 1.7 3.5 0.00 0.00 0.00 95 1018.7
20260506091047 48 316 1.7 4.3 0.00 0.00 0.00 95 1018.7
20260506090544 48 316 1.7 4.3 0.00 0.00 0.00 95 1018.6
20260506090057 48 316 2.6 4.3 0.00 0.00 0.00 94 1018.6
20260506085544 48 312 1.7 4.3 0.00 0.00 0.00 94 1018.6
20260506085044 48 317 1.7 3.5 0.00 0.00 0.00 94 1018.6
20260506084600 48 317 0.9 3.5 0.00 0.00 0.00 95 1018.6
20260506084044 48 317 1.7 3.5 0.00 0.00 0.00 95 1018.6
20260506083545 48 315 1.7 4.3 0.00 0.00 0.00 95 1018.6
20260506083059 48 315 2.6 4.3 0.00 0.00 0.00 95 1018.7
20260506082542 48 313 2.6 4.3 0.00 0.00 0.00 95 1018.7
20260506082043 48 312 2.6 4.3 0.00 0.00 0.00 95 1018.8
20260506081558 48 312 1.7 4.3 0.00 0.00 0.00 95 1018.7
20260506081043 48 309 2.6 4.3 0.00 0.00 0.00 94 1018.7
20260506080543 48 307 2.6 4.3 0.00 0.00 0.00 94 1018.8
20260506073053 48 309 2.6 7.0 0.00 0.00 0.00 94 1018.4
20260506072543 48 308 2.6 5.2 0.00 0.00 0.00 95 1018.3
20260506072043 48 299 2.6 4.3 0.00 0.00 0.00 95 1018.3
20260506071551 48 313 2.6 4.3 0.00 0.00 0.00 95 1018.3
20260506071042 48 313 2.6 4.3 0.00 0.00 0.00 95 1018.3
20260506070543 48 315 2.6 4.3 0.00 0.00 0.00 95 1018.3
20260506062042 48 313 2.6 4.3 0.00 0.00 0.00 95 1018.2
20260506061555 48 313 2.6 4.3 0.00 0.00 0.00 95 1018.1
20260506061046 48 312 2.6 4.3 0.00 0.00 0.00 95 1018.0
20260506060543 49 315 2.6 6.1 0.00 0.00 0.00 95 1018.1
20260506051044 49 309 2.6 4.3 0.00 0.00 0.00 95 1017.8
20260506050543 49 309 2.6 4.3 0.00 0.00 0.00 94 1017.8
20260506045047 49 317 1.7 3.5 0.00 0.00 0.00 94 1017.7
20260506044628 49 317 1.7 4.3 0.00 0.00 0.00 94 1017.6
20260506044046 49 318 2.6 4.3 0.00 0.00 0.00 94 1017.6
20260506043545 49 319 1.7 3.5 0.00 0.00 0.00 94 1017.4
20260506043053 49 320 2.6 3.5 0.00 0.00 0.00 94 1017.5
20260506042544 49 320 1.7 3.5 0.00 0.00 0.00 94 1017.5
20260506042045 49 316 1.7 3.5 0.00 0.00 0.00 94 1017.4
20260506041551 49 318 1.7 3.5 0.00 0.00 0.00 94 1017.3
20260506041044 49 318 1.7 3.5 0.00 0.00 0.00 94 1017.2
20260506040543 49 318 1.7 3.5 0.00 0.00 0.00 94 1017.2
20260506040048 49 317 2.6 3.5 0.00 0.00 0.00 93 1017.2
20260506035547 49 318 1.7 3.5 0.00 0.00 0.00 93 1017.2
20260506035044 49 318 1.7 3.5 0.00 0.00 0.00 93 1017.1
20260506034549 49 310 1.7 3.5 0.00 0.00 0.00 93 1017.0
20260506034043 49 310 1.7 3.5 0.00 0.00 0.00 93 1016.9
20260506033545 49 310 1.7 3.5 0.00 0.00 0.00 93 1017.0
20260506033049 49 310 0.0 4.3 0.00 0.00 0.00 93 1016.9
20260506032544 49 310 1.7 4.3 0.00 0.00 0.00 94 1016.9
20260506032044 49 310 2.6 4.3 0.00 0.00 0.00 94 1016.6
20260506031552 49 320 2.6 3.5 0.00 0.00 0.00 94 1016.6
20260506031045 49 325 1.7 3.5 0.00 0.00 0.00 94 1016.5
20260506030544 49 325 1.7 3.5 0.00 0.00 0.00 94 1016.6
20260506030057 49 315 1.7 4.3 0.00 0.00 0.00 94 1016.6
20260506025544 49 315 1.7 6.1 0.00 0.00 0.00 94 1016.5
20260506025044 49 315 2.6 6.1 0.00 0.00 0.00 94 1016.5
20260506024550 49 312 1.7 3.5 0.00 0.00 0.00 94 1016.3
20260506024045 49 318 2.6 3.5 0.00 0.00 0.00 94 1016.3
20260506023545 49 310 1.7 4.3 0.00 0.00 0.00 94 1016.2
20260506023057 49 310 2.6 4.3 0.00 0.00 0.00 94 1016.3
20260506022544 49 309 2.6 4.3 0.00 0.00 0.00 94 1016.3
20260506022044 49 306 2.6 4.3 0.00 0.00 0.00 94 1016.3
20260506021555 49 311 2.6 4.3 0.00 0.00 0.00 94 1016.3
20260506021044 49 311 1.7 4.3 0.00 0.00 0.00 94 1016.4
20260506020544 49 309 2.6 4.3 0.00 0.00 0.00 94 1016.3
20260506020052 49 304 2.6 4.3 0.00 0.00 0.00 93 1016.4
20260506015543 49 299 2.6 4.3 0.00 0.00 0.00 93 1016.4
20260506015043 49 313 1.7 4.3 0.00 0.00 0.00 93 1016.4
20260506014549 49 310 2.6 4.3 0.00 0.00 0.00 93 1016.4
20260506014042 49 309 2.6 6.1 0.00 0.00 0.00 93 1016.3
20260506013543 50 312 1.7 6.1 0.00 0.00 0.00 93 1016.3
20260506013046 50 320 1.7 4.3 0.00 0.00 0.00 92 1016.3
20260506012543 50 317 0.9 3.5 0.00 0.00 0.00 92 1016.3
20260506012043 50 317 1.7 3.5 0.00 0.00 0.00 92 1016.2
20260506011553 50 323 1.7 2.6 0.00 0.00 0.00 92 1016.2
20260506011044 50 323 0.9 3.5 0.00 0.00 0.00 92 1016.2
20260506010540 50 323 0.9 3.5 0.00 0.00 0.00 91 1016.2
20260506010110 50 324 0.9 3.5 0.00 0.00 0.00 91 1016.2
20260506005543 50 308 0.9 3.5 0.00 0.00 0.00 91 1016.2
20260506005042 50 308 0.9 3.5 0.00 0.00 0.00 91 1016.2
20260506004555 50 333 0.9 3.5 0.00 0.00 0.00 90 1016.2
20260506004039 50 333 1.7 4.3 0.00 0.00 0.00 90 1016.2
20260506003542 51 315 2.6 4.3 0.00 0.00 0.00 90 1016.1
20260506003053 51 310 1.7 3.5 0.00 0.00 0.00 90 1016.0
20260506002543 51 311 1.7 4.3 0.00 0.00 0.00 90 1016.0
20260506002043 51 303 1.7 4.3 0.00 0.00 0.00 90 1016.0
20260506001549 51 304 2.6 6.1 0.00 0.00 0.00 89 1015.9
20260506001043 51 311 2.6 6.1 0.00 0.00 0.00 89 1015.9
20260506000544 51 307 3.5 7.0 0.00 0.00 0.00 89 1015.9
20260506000050 51 319 2.6 7.0 0.00 0.00 0.00 88 1015.8
20260505235544 51 312 3.5 7.0 0.00 0.00 0.00 88 1015.8
20260505235045 52 309 1.7 7.0 0.00 0.00 0.00 88 1015.8
20260505234605 52 307 1.7 7.0 0.00 0.00 0.00 87 1015.8
20260505234042 52 315 1.7 4.3 0.00 0.00 0.00 87 1015.8
20260505233542 52 325 1.7 4.3 0.00 0.00 0.00 87 1015.8
20260505233048 52 314 1.7 3.5 0.00 0.00 0.00 87 1015.8
20260505232543 52 317 1.7 4.3 0.00 0.00 0.00 87 1015.8
20260505232046 51 317 1.7 4.3 0.00 0.00 0.00 87 1015.9
20260505231548 51 301 1.7 4.3 0.00 0.00 0.00 88 1015.9
20260505231042 51 277 0.9 4.3 0.00 0.00 0.00 88 1015.9
20260505230543 51 320 1.7 3.5 0.00 0.00 0.00 88 1016.0
20260505230054 51 321 1.7 3.5 0.00 0.00 0.00 88 1015.9
20260505225543 51 309 0.9 3.5 0.00 0.00 0.00 89 1015.9
20260505225043 51 309 1.7 3.5 0.00 0.00 0.00 89 1016.0
20260505224600 51 317 1.7 4.3 0.00 0.00 0.00 89 1016.0
20260505224047 51 313 1.7 4.3 0.00 0.00 0.00 89 1016.1
20260505223542 51 315 1.7 4.3 0.00 0.00 0.00 89 1016.0
20260505223054 51 303 2.6 4.3 0.00 0.00 0.00 89 1016.2
20260505222545 51 317 1.7 4.3 0.00 0.00 0.00 89 1016.2
20260505222043 51 326 0.9 4.3 0.00 0.00 0.00 89 1016.2
20260505221551 51 326 2.6 4.3 0.00 0.00 0.00 89 1016.3
20260505221043 51 318 2.6 4.3 0.00 0.00 0.00 89 1016.2
20260505220546 51 309 2.6 7.0 0.00 0.00 0.00 89 1016.1
20260505220051 51 303 1.7 7.0 0.00 0.00 0.00 89 1016.1
20260505215543 51 309 2.6 7.0 0.00 0.00 0.00 89 1016.2
20260505215047 51 308 1.7 7.0 0.00 0.00 0.00 89 1016.1
20260505214613 51 318 2.6 7.0 0.00 0.00 0.00 89 1016.2
20260505214043 51 311 3.5 6.1 0.00 0.00 0.00 89 1016.3
20260505213542 51 300 1.7 4.3 0.00 0.00 0.00 90 1016.3
20260505213102 51 313 1.7 4.3 0.00 0.00 0.00 91 1016.2
20260505212542 50 303 1.7 6.1 0.00 0.00 0.00 91 1016.3
20260505212042 50 315 1.7 6.1 0.00 0.00 0.00 92 1016.2
20260505211551 50 299 1.7 5.2 0.00 0.00 0.00 92 1016.2
20260505211044 50 315 1.7 6.1 0.00 0.00 0.00 93 1016.1
20260505210543 50 306 2.6 6.1 0.00 0.00 0.00 94 1016.0
20260505210052 50 312 1.7 6.1 0.00 0.00 0.00 95 1016.0
20260505205542 50 313 1.7 6.1 0.00 0.00 0.00 95 1016.1